Location: Newark
(9.4667°S, 159.8167°E)
Time: 12:57:55
(UTC+00:00)

Hubble Space Telescope - Visible Passes

Search period start: 21 October 2019 00:00
Search period end: 31 October 2019 00:00
Orbit: 536 x 540 km, 28.5° (Epoch: 20 October)

Date Brightness Start Highest point End Pass type
(mag) Time Alt. Az. Time Alt. Az. Time Alt. Az.
21 Oct 2.0 08:28:54 10° W 08:32:48 39° SSW 08:35:17 19° SSE visible
21 Oct 2.1 17:04:12 37° ENE 17:04:12 37° ENE 17:06:46 10° ENE visible
22 Oct 2.5 08:18:38 10° W 08:22:17 29° SSW 08:25:58 10° SE visible
22 Oct 3.1 16:55:04 18° NE 16:55:04 18° NE 16:56:11 10° NE visible
22 Oct 2.8 18:31:28 10° NW 18:33:09 12° NNW 18:34:50 10° N visible
23 Oct 2.9 08:08:28 10° WSW 08:11:47 23° SSW 08:15:08 10° SSE visible
24 Oct 3.3 07:58:25 10° WSW 08:01:19 18° SSW 08:04:12 10° SSE visible
25 Oct 3.5 07:48:32 10° SW 07:50:51 14° SSW 07:53:12 10° SSE visible
26 Oct 3.6 07:38:54 10° SW 07:40:26 12° SSW 07:41:57 10° S visible
